Flag for Germany Weather past 2 weeks in Mülheim / Ruhr, North Rhine-Westphalia, Germany

Now
55 °F

Overcast.


Feels Like: 53 °F
Forecast: 47 / 59 °F
Wind: 9 mph from Southwest

Location: Duesseldorf

Current Time: Oct 23, 2014 at 10:07:01 PM

Latest Report: Oct 23, 2014 at 9:20 PM


Visibility: N/A

Pressure: 30.18 "Hg

Humidity: 77%

Dew point: 48 °F

Location of Mülheim / RuhrLocation

Historic Weather in Mülheim / Ruhr — Graph

°F

Mülheim / Ruhr temperature yesterday

Maximum temperature yesterday: 52 °F (at 12:50 PM)
Minimum temperature yesterday: 45 °F (at 12:20 AM)
Average temperature yesterday: 48 °F

Past Weeks' High & Low Weather Summary

 TemperatureHumidityPressure
High75 °F (Oct 19, 2:20 PM)100% (Oct 9, 2:50 AM)30.21 "Hg (Oct 9, 2:50 AM)
Low45 °F (Oct 21, 10:50 PM)49% (Oct 14, 2:20 PM)29.50 "Hg (Oct 21, 3:20 PM)
Average58 °F81%29.88 "Hg
* Reported Oct 8 9:20 PM — Oct 23 9:20 PM, Mülheim / Ruhr, Weather by CustomWeather, © 2014

Note: Actual official high and low records may vary slightly from our data, if they occured in-between our weather recording intervals... More about our weather records

Advertising

Mülheim / Ruhr weather history for previous 24 hours

 ConditionsComfort  
Time TempWeatherWind HumidityBarometerVisibility
9:20 PM
Oct 23
55 °FOvercast.9 mph77%30.18 "HgN/A
8:50 PM55 °FOvercast.8 mph77%30.18 "HgN/A
8:20 PM55 °FPassing clouds.7 mph77%30.18 "HgN/A
7:50 PM55 °FPassing clouds.9 mph77%30.18 "HgN/A
7:20 PM55 °FPartly sunny.8 mph77%30.18 "HgN/A
6:50 PM55 °FPartly sunny.8 mph77%30.18 "HgN/A
6:20 PM55 °FPartly sunny.8 mph77%30.18 "HgN/A
5:50 PM55 °FPartly sunny.9 mph77%30.18 "HgN/A
5:20 PM55 °FBroken clouds.12 mph77%30.18 "HgN/A
4:50 PM55 °FPartly sunny.10 mph77%30.18 "HgN/A
4:20 PM57 °FPartly sunny.10 mph72%30.18 "HgN/A
3:50 PM55 °FPartly sunny.12 mph77%30.18 "HgN/A
3:20 PM55 °FPartly sunny.12 mph77%30.21 "HgN/A
2:50 PM55 °FPartly sunny.10 mph77%30.21 "HgN/A
2:20 PM55 °FPartly sunny.10 mph77%30.21 "HgN/A
1:50 PM55 °FBroken clouds.9 mph77%30.21 "HgN/A
1:20 PM55 °FPartly sunny.12 mph77%30.21 "HgN/A
12:50 PM54 °FPartly sunny.12 mph77%30.21 "HgN/A
12:20 PM54 °FPartly sunny.9 mph77%30.21 "HgN/A
11:50 AM54 °FLight rain. Broken clouds.8 mph77%30.21 "HgN/A
11:20 AM54 °FPartly sunny.9 mph77%30.21 "HgN/A
10:50 AM52 °FPartly sunny.9 mph82%30.21 "HgN/A
10:20 AM52 °FBroken clouds.8 mph82%30.21 "HgN/A
9:50 AM52 °FPartly sunny.8 mph82%30.21 "HgN/A
9:20 AM50 °FPartly sunny.8 mph88%30.21 "HgN/A
8:50 AM50 °FPassing clouds.7 mph88%30.21 "HgN/A
8:20 AM50 °FPartly cloudy.7 mph88%30.21 "HgN/A
7:50 AM50 °FPassing clouds.6 mph82%30.18 "HgN/A
7:20 AM48 °FPartly cloudy.5 mph94%30.18 "HgN/A
6:50 AM48 °FPassing clouds.5 mph94%30.18 "HgN/A
6:20 AM48 °FPassing clouds.3 mph94%30.18 "HgN/A
5:50 AM48 °FPassing clouds.2 mph94%30.18 "HgN/A
5:20 AM48 °FPartly cloudy.3 mph87%30.18 "HgN/A
4:50 AM48 °FPassing clouds.6 mph87%30.18 "HgN/A
4:20 AM48 °FLight rain. Passing clouds.5 mph87%30.18 "HgN/A
3:50 AM48 °FPassing clouds.5 mph87%30.18 "HgN/A
3:20 AM48 °FClear.5 mph87%30.18 "Hg10 mi
2:50 AM48 °FClear.8 mph87%30.18 "Hg10 mi
2:20 AM48 °FClear.8 mph82%30.18 "Hg10 mi
1:50 AM48 °FClear.7 mph87%30.18 "Hg10 mi
1:20 AM48 °FClear.7 mph87%30.18 "Hg10 mi
12:50 AM48 °FClear.6 mph87%30.18 "Hg10 mi
12:20 AM48 °FPassing clouds.5 mph87%30.18 "HgN/A
11:50 PM
Oct 22
48 °FClear.6 mph87%30.18 "Hg10 mi
11:20 PM48 °FClear.6 mph87%30.18 "Hg10 mi
10:50 PM48 °FClear.3 mph87%30.18 "Hg10 mi
10:20 PM48 °FClear.3 mph87%30.18 "Hg10 mi
Weather by CustomWeather, © 2014

See weather overviewHow to use our weather pages